shoulder
new_line
new_line
first
second
third
Al di la della Luna; Beyond the Moon; Astrophotography; Astrofotografia; Danilo Pivato
 
 
         
         
1997

Orbital Elements

Epoch 1997 Mar. 13.0 TT = JDT 2450520.5
T 1997 Apr. 1.13727 TT                                                          MPCW
q   0.9141407            (2000.0)                        P                     Q
z  +0.0053998      Peri.   130.58879      -0.13312075     -0.17030406
                            Node   282.47071     +0.28229358     +0.93780525
e   0.9950638      Incl.      89.43006      +0.95004695     -0.30251916
 
         
         
"...Danilo has produced a stunningly beautiful gallery of photographs of Comet Hale-Bopp, and I commend and congratulate him for his skills, dedication, and hard work in putting this gallery together. Not only does this bring back pleasant memories to those of who so fondly remember remember this comet, but perhaps more importantly it allows us to share our memories with the younger children and others who were not so fortunate to have seen it... Sincerely" - San Diego - California - June, 1997
       
Alan Hale
         
         
     
Used equipment
Special support for the 6x7cm film
     
         
         
Befor perihelion passage        
         
-
-
-
-
     
1997.02.08
 
         
-
-
1997.02.18
1997.02.18
1997.02.18
 
         
-
 
1997.03.06
1997.03.06
1997.03.06
1997.03.06
         
-
1997.03.08
1997.03.08
1997.03.08
1997.03.08
 
         
-
1997.03.09
1997.03.09
1997.03.09
1997.03.09
         
1997.03.13
1997.03.13
1997.03.13
1997.03.13
1997.03.13
         
1997.03.16
1997.03.16
1997.03.16
1997.03.16
1997.03.16
         
         
After perihelion passage    
         
-
1997.03.30
1997.03.30
1997.03.30
1997.03.30
         
-
1997.03.30
1997.03.30
1997.03.30
1997.03.30
         
-
1997.04.07
1997.04.07
1997.04.07
1997.04.07
         
-
-
1997.05.03
1997.05.03
1997.05.03
         
         
         
         
         
         

 

       
 
Since: 01/01/2004
 
       
 
Since: 01/11/2010